Wind_Speed
12 12 12 13 9 7 5 7 7 8 6 6 9 10 8 8 10 11 12 12 13 13 16 19 21 22 23 25 27 28 29 29 29 30 31 34 33 32 29 27 25 23 22 24
12 15 9 10 8 7 7 7 8 8 5 4 6 8 8 8 9 10 11 12 13 13 15 19 21 22 24 25 26 27 28 28 28 28 27 27 30 29 27 28 27 25 25 21
15 8 4 4 9 5 7 8 2 1 7 6 3 7 4 5 7 8 10 10 11 13 14 17 20 21 23 25 26 28 28 29 28 29 27 27 27 30 27 30 29 31 27 23
12 9 6 5 11 8 4 7 0 9 8 4 2 1 2 2 4 9 11 12 12 13 14 16 18 20 22 24 25 26 28 28 28 28 28 28 27 26 30 31 30 32 27 26
6 9 10 8 6 11 6 3 5 9 5 6 5 3 2 2 5 10 11 12 12 12 12 15 17 18 21 23 26 27 29 29 29 28 26 27 27 28 28 30 32 30 29 26
10 5 10 5 4 6 3 8 9 4 3 1 3 3 3 5 7 9 10 12 12 13 13 16 17 19 21 23 25 27 29 31 30 28 26 25 27 29 29 30 30 31 29 27
11 12 6 8 1 11 6 5 2 2 0 3 3 5 2 3 8 10 11 13 13 12 13 16 18 20 21 23 25 28 30 32 31 28 27 25 24 26 27 29 28 31 31 30
2 4 9 11 5 4 7 4 1 2 2 3 1 3 3 3 6 6 8 10 11 12 12 17 19 20 22 23 25 27 30 31 30 29 26 24 23 25 24 26 28 27 29 31
5 4 1 5 10 4 2 4 2 3 2 3 0 1 5 1 5 8 9 10 11 12 14 17 19 20 22 23 24 26 28 30 28 27 26 25 24 26 26 26 26 26 26 31
3 5 3 0 3 8 5 4 1 2 2 2 2 3 2 2 6 10 11 10 11 12 14 17 19 20 21 21 22 24 26 26 26 26 25 25 23 25 27 26 27 28 27 27
5 0 5 3 2 1 0 2 5 3 2 2 4 1 2 3 3 6 10 9 10 11 12 16 19 20 20 20 21 24 26 26 27 26 25 25 24 24 25 25 26 27 27 26
3 2 4 3 1 2 1 2 1 3 3 0 3 2 3 5 6 8 10 10 11 11 12 16 18 20 20 21 22 24 26 26 26 26 25 24 24 25 25 25 25 26 27 26
6 2 4 5 4 5 5 3 2 1 1 5 2 1 4 4 8 9 8 10 9 11 12 15 17 19 20 20 22 24 26 25 26 25 25 23 24 25 25 26 27 26 27 25
4 2 3 1 3 6 4 8 8 3 3 5 7 7 4 3 5 8 9 10 12 12 13 13 17 19 20 20 22 24 25 25 25 25 25 23 25 26 25 26 27 25 26 26
3 4 4 1 1 4 7 7 10 8 4 5 2 5 7 7 8 9 10 10 12 13 14 14 16 19 20 20 22 24 23 24 24 24 24 23 24 26 25 26 25 25 23 24
5 4 4 4 4 6 8 10 11 12 7 9 11 10 9 9 8 10 10 11 12 13 14 15 19 19 18 21 23 23 22 22 23 23 23 23 24 25 26 27 26 25 24 24
7 5 4 3 4 5 8 13 13 8 10 7 7 4 5 8 8 9 11 10 11 13 14 15 17 17 19 21 21 21 21 21 21 22 23 23 24 25 26 26 25 25 25 24
6 6 2 2 3 4 4 8 7 9 9 13 10 9 7 7 8 9 7 8 10 12 13 14 14 16 18 19 19 20 19 19 21 22 22 22 24 25 24 25 25 25 25 25
6 6 3 3 6 5 9 8 7 9 6 10 9 5 4 3 7 2 5 4 7 9 9 10 13 15 17 17 19 20 18 18 20 21 23 23 24 25 25 24 25 24 24 23
6 6 4 3 4 4 5 11 6 4 6 11 7 5 4 2 6 6 4 5 5 5 8 11 13 13 14 16 18 18 18 18 19 21 22 22 22 23 23 23 23 24 23 22
10 7 10 7 5 6 6 12 9 4 2 10 8 6 3 5 5 5 2 1 3 5 8 10 11 11 13 15 18 18 18 19 19 20 20 20 21 20 22 21 21 22 23 22
12 9 5 7 6 7 13 13 7 1 7 7 7 5 5 4 2 1 1 1 3 6 8 9 10 11 12 14 16 18 18 20 20 20 20 19 19 21 21 20 20 20 22 24
7 7 5 9 5 1 20 4 15 6 6 7 6 5 5 4 3 2 2 1 3 6 7 7 9 10 10 13 14 17 19 20 22 21 20 19 18 19 18 20 21 21 21 22
9 9 4 3 6 12 16 16 9 10 9 5 6 4 7 4 4 4 3 1 2 4 6 6 7 9 11 12 13 15 17 20 21 21 19 19 19 19 18 19 18 20 22 22
3 12 11 10 11 2 13 18 16 12 9 8 8 8 8 6 6 5 3 1 1 2 3 5 6 8 10 11 12 14 16 18 19 18 19 20 19 19 19 17 18 17 18 19
9 10 8 6 7 9 3 16 19 16 13 11 10 10 9 8 7 6 4 2 0 0 2 4 5 6 9 10 12 13 14 16 15 17 19 20 19 19 19 19 18 16 18 17
Wind_Direction
57 76 58 51 53 71 86 83 90 103 71 66 91 96 76 51 34 28 23 20 19 17 15 12 9 7 3 3 2 0 358 357 354 353 352 352 352 351 350 351 344 338 333 326
92 64 61 59 66 87 93 96 90 102 87 125 131 103 87 53 39 28 15 15 10 5 5 7 5 4 2 0 358 356 355 353 353 351 347 348 346 347 346 346 349 345 336 332
72 49 52 63 55 110 74 26 1 40 125 111 161 137 109 69 44 29 26 13 10 6 357 360 359 1 358 358 355 353 351 350 349 348 345 344 343 345 346 345 346 343 340 333
67 58 64 75 57 357 88 4 168 149 208 67 235 63 87 25 30 30 21 11 6 1 358 358 355 356 356 355 353 352 350 348 347 345 344 344 346 344 340 339 338 341 343 338
84 52 38 56 32 11 57 4 124 153 122 136 61 251 65 212 16 10 9 2 359 357 355 352 353 350 351 352 353 350 348 348 346 344 341 342 342 342 338 337 341 340 342 343
89 78 41 39 41 2 141 119 118 132 147 134 309 323 156 15 339 339 347 344 350 349 344 347 349 346 347 350 349 348 347 346 346 344 343 343 341 340 339 336 340 341 340 339
97 63 95 28 170 58 170 196 153 179 121 8 287 266 28 335 335 330 330 337 340 341 343 336 344 344 342 345 346 346 346 345 346 345 344 344 341 337 341 336 334 339 339 340
91 118 15 7 28 32 51 40 12 91 350 35 218 345 61 284 329 330 324 340 339 345 344 344 343 343 342 342 344 344 344 344 346 346 343 343 341 341 339 336 334 334 341 337
129 112 113 37 39 302 49 63 46 106 99 245 21 227 232 270 340 357 354 345 339 339 341 344 344 343 343 343 342 343 344 344 346 347 346 346 338 344 342 338 338 336 337 341
156 120 202 59 275 46 67 109 176 71 348 332 277 263 58 338 317 328 325 321 321 326 332 336 341 341 340 339 340 341 343 344 345 346 348 344 342 342 341 339 339 338 338 341
150 53 157 230 56 267 206 91 66 92 333 334 311 70 134 235 268 288 293 292 292 303 315 325 333 338 339 339 340 341 343 344 344 345 346 347 348 346 341 340 343 340 338 340
88 117 145 120 65 320 87 147 263 267 162 140 298 283 163 233 279 285 280 284 288 303 315 327 329 336 339 341 342 342 342 343 344 343 344 349 345 344 343 342 342 343 340 344
167 154 140 169 188 201 237 183 127 118 29 196 267 39 189 262 284 283 285 295 302 315 326 325 331 337 339 341 341 342 342 342 343 343 344 350 346 347 346 344 345 345 346 345
159 182 260 265 87 132 173 194 187 237 215 156 236 293 282 284 298 310 311 322 329 329 330 330 334 337 338 340 341 342 342 343 345 344 347 351 347 347 348 347 346 347 348 347
235 182 188 187 205 211 221 208 198 210 221 230 87 235 284 279 277 295 317 309 328 333 336 336 336 335 336 340 341 342 343 345 346 346 349 348 349 348 348 347 346 347 349 351
199 167 193 226 212 228 240 229 220 223 228 253 266 274 233 266 285 286 316 331 329 335 340 337 337 337 340 343 342 342 344 347 347 349 350 344 349 350 350 347 347 350 352 353
183 176 185 236 192 298 269 230 216 203 202 221 242 219 284 295 304 318 322 322 328 335 335 338 339 340 341 343 342 344 344 346 349 351 352 343 344 347 348 348 349 352 351 354
183 191 202 255 202 241 106 150 206 230 233 214 248 271 283 289 310 307 319 328 328 338 335 339 342 339 341 343 345 343 346 351 352 355 353 346 344 347 349 349 348 349 350 351
213 194 213 231 229 314 205 209 200 206 222 212 227 243 257 307 300 126 63 6 335 341 342 341 342 340 342 347 345 345 351 354 358 356 350 349 350 349 353 349 343 346 343 354
193 235 228 210 260 249 101 148 166 185 247 186 198 213 254 285 294 32 6 353 350 355 350 347 343 343 347 349 347 346 350 357 355 354 350 350 349 349 350 347 345 346 350 353
190 204 219 221 266 280 186 154 159 221 108 177 194 218 263 266 341 355 350 2 9 0 353 347 345 350 351 347 346 348 348 356 348 348 349 351 352 351 346 347 350 347 350 354
183 186 192 203 228 256 158 150 204 149 151 173 196 221 244 259 301 139 137 16 3 347 349 351 350 352 350 349 349 348 351 346 345 348 353 360 353 349 351 352 354 356 357 355
204 209 187 206 220 171 181 178 203 185 182 193 210 198 212 202 201 172 163 118 7 348 350 352 352 348 352 352 352 348 345 344 343 347 356 359 356 354 355 354 354 357 359 2
226 206 235 181 234 217 205 215 207 207 221 200 216 221 189 195 172 164 160 140 346 348 352 351 344 350 353 352 350 348 345 345 345 347 353 356 0 357 359 357 358 359 360 359
192 169 217 240 252 232 221 219 217 216 228 234 236 213 196 179 175 169 164 156 8 354 351 343 340 345 347 348 349 352 349 347 347 347 349 356 357 359 359 2 1 4 5 1
191 200 196 214 211 200 203 215 215 226 236 230 207 184 182 183 168 165 161 160 188 330 331 329 330 335 343 346 349 352 352 351 351 346 350 353 353 355 358 358 358 4 4 8
Height
852 857 869 872 869 868 868 869 877 887 894 893 895 897 903 904 902 902 900 898 897 895 895 894 892 887 883 878 872 867 861 857 851 844 838 830 823 817 813 811 807 801 795 788
860 873 876 875 873 873 871 874 885 890 895 892 895 898 901 903 905 904 903 899 898 896 895 894 891 887 883 878 874 869 863 858 853 848 841 836 828 820 816 812 808 803 797 792
870 884 880 877 878 875 879 886 888 885 896 893 892 894 895 901 902 903 902 901 899 898 897 895 892 889 884 879 875 870 864 859 854 849 842 836 829 821 814 810 807 803 797 792
878 882 881 880 885 880 879 893 892 888 885 882 894 887 897 899 898 900 901 901 900 899 898 896 893 890 885 881 876 871 866 859 854 849 843 836 829 822 816 810 807 803 798 792
890 889 885 887 893 888 894 893 886 886 886 891 891 894 897 899 896 900 901 902 901 900 899 896 894 890 886 882 877 872 866 860 855 849 844 837 830 824 816 811 806 802 797 792
887 892 894 895 894 892 894 888 886 884 886 894 908 900 900 898 906 902 902 902 901 900 898 896 893 890 886 882 878 873 867 860 855 850 844 838 832 825 818 811 805 800 796 790
883 891 896 898 889 883 887 883 893 891 891 895 898 889 908 904 904 905 905 903 903 901 899 895 891 888 885 881 878 873 867 860 855 849 844 838 834 827 820 814 805 800 795 789
887 891 898 901 901 896 895 888 894 891 889 885 896 895 899 905 905 906 905 904 903 901 898 895 891 888 884 880 877 873 867 861 855 850 844 838 834 828 822 815 808 801 796 789
905 905 907 906 905 907 895 895 904 909 909 899 894 912 902 903 903 904 904 905 904 902 898 895 891 888 884 880 877 873 867 861 856 850 843 837 833 828 822 815 809 803 797 789
909 912 911 906 906 906 899 906 898 899 896 892 884 885 891 911 912 910 911 912 906 902 899 895 891 887 884 880 876 873 868 863 856 851 844 838 833 828 822 815 808 802 797 791
908 906 907 906 906 917 910 911 927 925 927 901 896 888 908 911 911 916 916 912 909 903 898 893 889 885 881 878 875 871 866 861 855 849 844 838 833 827 822 815 808 802 795 791
896 903 894 906 908 909 906 923 917 902 918 930 922 897 912 913 914 911 912 909 904 899 894 890 886 882 879 876 873 869 864 860 855 849 844 838 835 829 823 816 809 802 795 790
896 902 904 902 908 908 902 911 924 933 924 914 905 889 910 910 907 907 904 901 897 892 890 887 883 879 877 874 872 868 863 859 854 848 843 838 835 828 821 815 809 802 794 788
897 901 902 880 885 890 913 906 914 916 906 910 902 899 901 901 906 905 898 892 889 887 885 883 879 876 875 873 870 867 863 858 853 848 842 840 835 828 821 816 809 802 795 788
893 901 892 890 891 892 895 892 906 919 905 903 908 913 903 904 900 893 891 888 886 883 881 879 877 874 873 871 869 866 862 858 853 848 843 839 834 828 821 816 810 804 797 790
892 888 890 892 892 891 890 887 890 897 908 913 910 906 900 893 890 888 882 882 882 880 879 878 876 874 873 871 868 865 862 858 853 848 845 839 834 828 821 816 810 804 798 792
889 888 891 883 890 897 894 888 879 885 889 891 889 885 885 883 881 880 879 880 880 878 878 877 876 874 873 871 869 865 861 858 854 849 846 840 834 828 822 817 811 805 799 793
889 887 891 884 889 890 875 872 876 876 876 880 879 876 876 876 876 876 876 878 878 878 878 878 877 876 874 871 868 865 861 858 854 850 846 841 834 828 822 817 812 807 801 794
884 885 889 889 874 861 867 872 877 876 868 866 868 869 870 872 874 867 876 880 880 880 880 879 878 877 874 872 869 865 861 858 854 851 846 840 834 828 823 818 812 807 802 796
888 888 890 891 882 863 851 860 868 872 865 861 864 867 867 869 866 864 876 879 880 881 880 880 878 877 875 872 869 864 861 859 855 851 846 841 836 830 825 820 814 808 803 797
884 887 895 890 886 860 851 862 871 875 856 857 861 863 865 867 866 872 877 879 880 880 880 880 878 877 875 873 869 865 861 858 856 851 846 842 837 832 827 822 817 809 803 798
868 874 881 879 885 871 852 866 865 851 853 855 859 860 864 866 869 872 876 878 879 879 879 879 878 876 875 873 870 866 862 859 855 850 846 843 839 833 828 823 818 812 806 799
861 853 856 858 853 848 851 845 851 850 851 856 857 859 862 865 867 871 873 876 878 878 878 878 877 876 874 873 870 867 864 859 854 850 846 844 840 835 829 824 819 813 808 804
850 849 852 857 837 846 849 847 848 851 852 854 857 858 861 862 866 870 873 875 876 877 877 878 876 875 873 872 870 867 864 859 855 850 846 843 840 835 831 826 822 816 811 806
837 847 842 840 836 845 843 843 844 848 852 854 856 857 859 861 865 868 872 874 875 876 877 877 876 874 873 871 869 867 864 860 856 852 847 842 840 836 832 828 824 820 816 811
835 829 833 828 824 827 828 832 839 843 846 850 853 857 859 861 864 868 871 873 874 875 876 875 875 873 872 871 869 866 864 861 858 853 847 844 841 837 833 829 825 822 818 813